Terug naar catalogus

INTELSAT 23

ActiefCommunicatieGEO
NORAD 38867·PAYLOAD· XX

Gelanceerd Oct 14, 2012 vanaf Baikonur Cosmodrome

Loading…

TLE

VersSource: CelesTrak SupGP

Epoch: Sep 14, 2026, 00:00 UTC

1 38867C 12057A   26257.00000000 -.00000195  00000+0  00000+0 0  2570
2 38867   0.0287 263.9274 0001326 333.3766  62.6848  1.00274485    13

Volg INTELSAT 23 in realtime met AllMySat

Download on the App Store